User: anonymous   Login
Location: Caltech
(34.1382°N, 118.1253°W)
Time: 14:20:01
(UTC-07:00)
Language:

Cosmos 1508 Rocket - Orbit

View from above orbital plane
View from above orbital plane
View from above satellite
View from above satellite

Ground track
Ground track

The orbit data is extracted from the following two-line orbital elements,

1 14484U 83111B   14296.84264701  .00066475  00000-0  84189-3 0  6762
2 14484 082.8391 203.9860 0186392 169.5600 267.2460 15.41216514592304
Epoch (UTC): 23 October 2014 20:13:24
Eccentricity: 0.0186392
inclination: 82.8391°
perigee height: 315 km
apogee height: 569 km
right ascension of ascending node: 203.9860°
argument of perigee: 169.5600°
revolutions per day: 15.41216514
mean anomaly at epoch: 267.2460°
orbit number at epoch: 59230

The dashed part of the orbit path shows where the satellite is in the earth's shadow,  

DLR